Weather History for Bluefield, WV

Change the Weather History Date:

Monday, December 24, 2012

  Actual Average Record
Temperature  
Mean Temperature 45 °F 35 °F  
Max Temperature 49 °F 43 °F 66 °F (1964)
Min Temperature 41 °F 28 °F -8 °F (1983)
Degree Days  
Heating Degree Days 20 30  
Month to date heating degree days 462 650  
Since 1 July heating degree days 1534 1553  
Cooling Degree Days 0 0  
Month to date cooling degree days 0 0  
Year to date cooling degree days 1007 853  
Moisture  
Dew Point 40 °F    
Average Humidity 84    
Maximum Humidity 86    
Minimum Humidity 82    
Precipitation  
Precipitation 0.20 in 0.09 in 1.04 in (1979)
Month to date precipitation 2.44 2.29  
Year to date precipitation 42.82 39.01  
Snow  
Snow 0.00 in - - ()
Month to date snowfall 5.3  
Since 1 July snowfall 14.9  
Snow Depth 0.00 in    
Sea Level Pressure  
Sea Level Pressure 29.86 in    
Wind  
Wind Speed 6 mph (SW)    
Max Wind Speed 15 mph    
Max Gust Speed 20 mph    
Visibility 9 miles    
Events Rain    
T = Trace of Precipitation, MM = Missing Value Source: NWS Daily Summary

Daily Weather History Graph

Daily Weather History Graph

Search for Another Location

Airport:

Trip Planner

Search our weather history database for the weather conditions in past years. The results will help you decide how hot, cold, wet, or windy it might be!

Date:

Astronomy

Dec. 24, 2012 Rise Set
Actual Time 7:36 AM EST 5:12 PM EST
Civil Twilight 7:07 AM EST 5:41 PM EST
Nautical Twilight 6:34 AM EST 6:14 PM EST
Astronomical Twilight 6:03 AM EST 6:46 PM EST
Moon 2:37 PM EST (12/24) 4:15 AM EST (12/24)
Length of Visible Light 10h 34m
Length of Day
9h 35m
Waxing Gibbous, 88% of the Moon is Illuminated
Dec 24
Waxing Gibbous
Dec 28
Full
Jan 4
Last Quarter
Jan 11
New
Jan 18
First Quarter

Hourly Weather History & Observations

Time (EST) Temp. Windchill Dew Point Humidity Pressure Visibility Wind Dir Wind Speed Gust Speed Precip Events Conditions
12:52 AM 42.1 °F 40.2 °F 37.0 °F 82% 29.96 in 10.0 mi SW 3.5 mph - N/A   Overcast
1:52 AM 42.1 °F 40.2 °F 37.0 °F 82% 29.94 in 10.0 mi SSW 3.5 mph - N/A   Overcast
2:52 AM 42.1 °F 40.2 °F 37.0 °F 82% 29.94 in 10.0 mi South 3.5 mph - N/A   Overcast
3:17 AM 42.8 °F - 37.4 °F 81% 29.94 in 10.0 mi Calm Calm - N/A   Overcast
3:52 AM 43.0 °F 41.3 °F 37.9 °F 82% 29.92 in 10.0 mi West 3.5 mph - 0.00 in Rain Light Rain
4:32 AM 42.8 °F 41.1 °F 37.4 °F 81% 29.91 in 6.0 mi WSW 3.5 mph - 0.00 in Rain Light Rain
4:52 AM 42.1 °F - 39.0 °F 89% 29.90 in 6.0 mi Calm Calm - 0.01 in Rain Light Rain
5:20 AM 42.8 °F - 39.2 °F 87% 29.90 in 1.8 mi Calm Calm - 0.01 in Rain Light Rain
5:23 AM 41.0 °F - 37.4 °F 87% 29.90 in 0.8 mi Calm Calm - 0.01 in Rain Light Rain
5:52 AM 41.0 °F - 37.9 °F 89% 29.91 in 0.8 mi Calm Calm - 0.02 in Rain Light Rain
6:29 AM 41.0 °F - 39.2 °F 93% 29.89 in 1.2 mi Calm Calm - 0.02 in Rain Light Rain
6:40 AM 42.8 °F 40.1 °F 39.2 °F 87% 29.89 in 4.0 mi SE 4.6 mph - 0.02 in   Overcast
6:52 AM 42.1 °F 39.2 °F 39.0 °F 89% 29.89 in 10.0 mi SSE 4.6 mph - 0.02 in   Overcast
7:52 AM 43.0 °F 38.2 °F 37.9 °F 82% 29.88 in 10.0 mi SSE 8.1 mph - 0.00 in   Overcast
8:13 AM 42.8 °F 37.5 °F 37.4 °F 81% 29.87 in 10.0 mi SSE 9.2 mph 16.1 mph N/A   Overcast
8:48 AM 42.8 °F 38.6 °F 37.4 °F 81% 29.85 in 10.0 mi Variable 6.9 mph 17.3 mph N/A   Overcast
8:52 AM 43.0 °F 38.2 °F 37.9 °F 82% 29.85 in 10.0 mi ESE 8.1 mph - N/A   Overcast
9:52 AM 43.0 °F 40.3 °F 39.0 °F 86% 29.87 in 9.0 mi Variable 4.6 mph - 0.00 in Rain Light Rain
10:36 AM 44.6 °F 41.4 °F 39.2 °F 81% 29.86 in 10.0 mi SE 5.8 mph - 0.05 in Rain Light Rain
10:52 AM 44.1 °F 39.0 °F 39.0 °F 82% 29.85 in 10.0 mi SSE 9.2 mph - 0.06 in Rain Light Rain
11:52 AM 45.0 °F 43.5 °F 41.0 °F 86% 29.83 in 10.0 mi Variable 3.5 mph - 0.02 in   Overcast
12:08 PM 46.4 °F 45.2 °F 41.0 °F 81% 29.82 in 8.0 mi Variable 3.5 mph - 0.00 in Rain Light Rain
12:27 PM 46.4 °F 43.5 °F 41.0 °F 81% 29.80 in 9.0 mi SSE 5.8 mph - 0.02 in Rain Light Rain
12:36 PM 46.4 °F 43.5 °F 42.8 °F 87% 29.79 in 10.0 mi South 5.8 mph - 0.02 in Rain Light Rain
12:48 PM 46.4 °F 44.3 °F 42.8 °F 87% 29.78 in 10.0 mi South 4.6 mph - 0.02 in Rain Light Rain
12:52 PM 46.9 °F - 42.1 °F 83% 29.76 in 10.0 mi South 9.2 mph - 0.02 in   Overcast
1:22 PM 46.4 °F 41.1 °F 41.0 °F 81% 29.81 in 10.0 mi SSW 11.5 mph - 0.01 in Rain Light Rain
1:52 PM 46.0 °F 44.8 °F 42.1 °F 86% 29.78 in 9.0 mi SE 3.5 mph - 0.04 in Rain Light Rain
2:52 PM 48.0 °F - 43.0 °F 83% 29.78 in 10.0 mi WSW 8.1 mph - 0.00 in   Overcast
3:12 PM 48.2 °F - 42.8 °F 82% 29.79 in 10.0 mi WSW 5.8 mph - N/A   Overcast
3:52 PM 48.0 °F - 43.0 °F 83% 29.78 in 10.0 mi West 8.1 mph - 0.00 in Rain Light Rain
3:59 PM 48.2 °F - 44.6 °F 87% 29.80 in 10.0 mi West 11.5 mph - 0.00 in Rain Light Rain
4:52 PM 48.0 °F - 44.1 °F 86% 29.79 in 10.0 mi WSW 8.1 mph - 0.00 in   Overcast
5:52 PM 46.9 °F - 43.0 °F 86% 29.82 in 10.0 mi West 6.9 mph - N/A   Overcast
6:34 PM 46.4 °F 41.9 °F 42.8 °F 87% 29.84 in 10.0 mi WSW 9.2 mph - N/A   Overcast
6:52 PM 46.9 °F - 43.0 °F 86% 29.83 in 10.0 mi West 9.2 mph - N/A   Overcast
7:25 PM 46.4 °F 40.7 °F 42.8 °F 87% 29.85 in 10.0 mi West 12.7 mph 19.6 mph 0.01 in   Overcast
7:48 PM 46.4 °F 41.5 °F 42.8 °F 87% 29.85 in 10.0 mi West 10.4 mph - 0.01 in   Overcast
7:52 PM 46.9 °F - 42.1 °F 83% 29.84 in 10.0 mi West 6.9 mph - 0.01 in   Overcast
8:52 PM 46.9 °F - 42.1 °F 83% 29.87 in 10.0 mi WNW 10.4 mph - 0.00 in Rain Light Rain
8:57 PM 46.4 °F 41.9 °F 42.8 °F 87% 29.88 in 10.0 mi WNW 9.2 mph - 0.00 in Rain Light Rain
9:52 PM 46.0 °F 41.9 °F 41.0 °F 83% 29.88 in 10.0 mi West 8.1 mph 17.3 mph 0.00 in   Overcast
10:28 PM 46.4 °F 41.9 °F 41.0 °F 81% 29.90 in 10.0 mi West 9.2 mph - N/A   Overcast
10:52 PM 45.0 °F 39.7 °F 39.9 °F 82% 29.89 in 10.0 mi WNW 10.4 mph 18.4 mph N/A   Overcast
11:30 PM 44.6 °F 41.4 °F 39.2 °F 81% 29.91 in 10.0 mi WNW 5.8 mph - N/A   Overcast
11:52 PM 44.1 °F 40.1 °F 39.0 °F 82% 29.90 in 10.0 mi West 6.9 mph - N/A   Mostly Cloudy